Regional Weather Roundup
Issued by NWS

Home | Current Version | Previous Version | Graphics & Text | Print | Product List | Glossary On
Versions: 1 2 3 4 5 6 7 8 9 10 11 12 13 14 15 16 17 18 19 20 21 22 23 24 25 26 27 28 29 30 31 32 33 34 35 36 37 38 39 40 41 42 43 44 45 46 47 48 49 50
000
ASUS43 KMKX 251421
RWRWI

WISCONSIN REGIONAL WEATHER ROUNDUP
NATIONAL WEATHER SERVICE MILWAUKEE/SULLIVAN WI
900 AM CDT SAT APR 25 2015

NOTE: "FAIR" INDICATES FEW OR NO CLOUDS BELOW 12,000 FEET WITH NO
SIGNIFICANT WEATHER AND/OR OBSTRUCTIONS TO VISIBILITY.

WIZ001-002-006>008-014>016-023>028-251500-
NORTHWEST WISCONSIN

CITY           SKY/WX    TMP DP  RH WIND       PRES   REMARKS
SUPERIOR ARPT  CLOUDY    36  30  79 E14G29    29.98R WCI  27
ASHLAND        CLOUDY    39  33  79 N15       29.98R WCI  31
HAYWARD        SUNNY     43  25  49 E9        29.93R
SIREN          SUNNY     45  31  57 E9        29.91R
CUMBERLAND     SUNNY     43  23  45 E14       29.89S
RICE LAKE      PTSUNNY   43  22  43 E10G17    29.91S
CHETEK         CLOUDY    42  25  49 NE7       29.90R
LADYSMITH      MOSUNNY   44  18  35 E8        29.92S
EAU CLAIRE     PTSUNNY   45  26  47 E12       29.87S
MENOMONIE      CLOUDY    43  28  55 E12       29.87S
NEW RICHMOND   PTSUNNY   43  30  59 E9        29.87S
OSCEOLA        PTSUNNY   45  32  59 E12       29.91S
$$

WIZ003>005-009-010-017-018-251500-
NORTH CENTRAL WISCONSIN

CITY           SKY/WX    TMP DP  RH WIND       PRES   REMARKS
MANITOWISH WTR MOSUNNY   42  18  37 SE7       29.93F
ARBOR VITAE    SUNNY     42  15  32 SE10      29.93F
WOODRUFF       SUNNY     42  15  32 SE10      29.93F
RHINELANDER    SUNNY     42  17  36 E15       29.94S
EAGLE RIVER    SUNNY     41  14  32 SE8       29.94S
LAND O LAKES   SUNNY     42  16  35 SE5       29.96S
PHILLIPS       SUNNY     42  18  36 E13G18    29.92S
TOMAHAWK       SUNNY     43  16  33 E8        29.94S
MEDFORD        CLOUDY    40  18  40 E13G18    29.90S WCI  33
MERRILL        SUNNY     45  15  29 E13G18    29.92F
$$

WIZ029-030-035-036-043>047-251500-
CENTRAL WISCONSIN

CITY           SKY/WX    TMP DP  RH WIND       PRES   REMARKS
WAUSAU         CLOUDY    40  19  43 E10       29.90S WCI  33
MOSINEE        CLOUDY    39  19  45 E15       29.91S WCI  31
MARSHFIELD     MOSUNNY   42  25  50 E13       29.88F
STEVENS POINT  CLOUDY    38  22  50 E14       29.90F WCI  30
WAUPACA        CLOUDY    42  26  52 NE9G16    29.92F
WAUTOMA        CLOUDY    41  31  68 NE14      29.89F
WISC RAPIDS    CLOUDY    41  25  53 E12       29.89F
CAMP DOUGLAS   CLOUDY    41  41 100 E14       29.85F
$$

WIZ011>013-019>022-031-037>040-048>050-251500-
NORTHEAST WISCONSIN

CITY           SKY/WX    TMP DP  RH WIND       PRES   REMARKS
ANTIGO         MOSUNNY   38  18  44 E13       29.94R WCI  30
SHAWANO        CLOUDY    43  27  53 E13       29.95F
OCONTO         CLOUDY    40  25  56 NE10      29.96F WCI  33
STURGEON BAY   CLOUDY    39  18  41 NE9       29.99R WCI  33
GREEN BAY      CLOUDY    43  26  51 NE15      29.94F
MANITOWOC      CLOUDY    40  28  62 E10       29.92F WCI  33
APPLETON       PTSUNNY   39  21  48 NE14      29.92S WCI  31
CLINTONVILLE   MOSUNNY   41  23  48 E12       29.93F
OSHKOSH        CLOUDY    41  26  55 NE12      29.90S
$$

WIZ032>034-041-042-053>061-251500-
SOUTHWEST WISCONSIN

CITY           SKY/WX    TMP DP  RH WIND       PRES   REMARKS
LA CROSSE      CLOUDY    43  36  76 E9        29.83S
SPARTA         CLOUDY    41  35  79 E12G18    29.85S
VIROQUA        CLOUDY    41  37  87 E13       29.80S
BOSCOBEL       CLOUDY    45  35  68 E13G18    29.81S
PRAIRIE DU CHI CLOUDY    44  34  69 E12G18    29.79R
PLATTEVILLE    CLOUDY    44  37  78 E20       29.76F
$$

WIZ056-057-062-063-064-067-068-251500-
SOUTH CENTRAL WISCONSIN

CITY           SKY/WX    TMP DP  RH WIND       PRES   REMARKS
REEDSBURG      CLOUDY    41  36  82 E14G20    29.83F
BARABOO/DELLS  CLOUDY    40  35  80 E10       29.84F WCI  34
LONE ROCK      CLOUDY    43  36  76 E14       29.82F
MINERAL POINT  CLOUDY    43  36  75 E15       29.77F
MADISON        CLOUDY    43  36  76 E20G25    29.83F
MIDDLETON      CLOUDY    44  37  76 E12       29.83S
WATERTOWN      CLOUDY    41  38  87 E16       29.83F
MONROE         CLOUDY    43  37  81 NE15      29.77F
JANESVILLE     CLOUDY    46  37  71 E18       29.79R
$$

WIZ051-052-058>065-066-070>072-251500-
SOUTHEAST WISCONSIN

CITY           SKY/WX    TMP DP  RH WIND       PRES   REMARKS
MILWAUKEE      CLOUDY    40  35  83 NE12      29.87S WCI  33
WAUKESHA       CLOUDY    39  34  81 E12G18    29.86S WCI  32
MILWAUKEE/TIMM CLOUDY    39  32  75 NE8       29.88F WCI  34
RACINE         CLOUDY    41  37  86 NE10      29.87R
BURLINGTON     CLOUDY    41  37  84 NE13G20   29.82F
KENOSHA        CLOUDY    43  38  82 E14       29.83S
FOND DU LAC    CLOUDY    42  30  62 NE13      29.89F
SHEBOYGAN      CLOUDY    39  31  72 NE14      29.91R WCI  31
WEST BEND      CLOUDY    39  30  70 NE13      29.87F WCI  32
JUNEAU         CLOUDY    40  34  78 NE12      29.87F WCI  33
$$

LSZ147-162-251500-
LAKE SUPERIOR

STATION/POSITION TIME  TEMP    WIND        PRES    WAVE
                       AIR SEA DIR/SP/G            HT/PER
                 (UTC) (F)     (DEG/KT/KT) (MB)    (FT/S)
W MID LAKE BUOY  1350   34 34   60/ 16/ 17 1018.0F   3/ 4
DEVILS ISLAND    1400   35      70/ 19/ 22 1016.8F
PORT WING        1300   36      40/ 18/ 21 1015.2
SAXON HARBOR     1340   39      40/  8/ 10 1014.6F
$$

LMZ867-665-643>646-251500-
LAKE MICHIGAN

STATION/POSITION TIME  TEMP    WIND        PRES    WAVE
                       AIR SEA DIR/SP/G            HT/PER
                 (UTC) (F)     (DEG/KT/KT) (MB)    (FT/S)
CHAMBERS ISLAND  1300   36      30/ 13/ 16 1015.6S
NORTHPORT PIER   1300   36      60/  8/ 10 1015.6F
SISTER BAY       1302   40     110/ 11/ 17   N/A
KEWAUNEE LAKESHO 1300   37      40/ 14/ 16 1013.5R
SHEBOYGAN LAKESH 1400   38      50/ 13/ 14 1013.7R
PORT WASHINGTON  1300   41      40/ 12/ 16 1013.2
MILWAUKEE LAKESH 1400   39      30/ 12/ 14   N/A
KENOSHA   LAKESH 1400   41      80/ 17/ 19 1010.2F
$$

TC  - TEMPERATURE IN CELSIUS
VSB - VISIBILITY IN STATUTE MILES
WCI - WIND CHILL INDEX
HX  - HEAT INDEX



USA.gov is the U.S. government's official web portal to all federal, state and local government web resources and services.